Location: DaltonSkyGazer Observatory
(42.4858°N, 73.1565°W)
Time: 08:52:17
(UTC-04:00)

Daily predictions for brighter satellites

Satellite Brightness Start Highest point End
(mag) Time Altitude Azimuth Time Altitude Azimuth Time Altitude Azimuth
Cosmos 921 Rocket 3.9 18:25:17 10° N 18:29:12 29° ENE 18:33:02 10° SE
MOS 1 4.5 18:25:58 10° SE 18:31:25 52° ENE 18:36:55 10° N
DELTA 2 R/B (1) 3.9 18:26:27 10° W 18:31:58 64° S 18:37:30 10° ESE
Cosmos 1400 Rocket 2.9 18:28:32 10° N 18:32:31 53° ENE 18:36:24 10° SSE
MTI 3.8 18:32:20 10° NNE 18:35:32 62° E 18:38:42 10° S
Cosmos 1500 Rocket 3.8 18:32:20 10° N 18:36:32 46° ENE 18:40:40 10° SSE
CZ-4 R/B 4.4 18:33:04 10° SSE 18:37:09 63° ENE 18:41:16 10° N
CZ-4 R/B 1.9 18:38:50 10° S 18:43:02 68° WSW 18:47:11 10° NNW
Cosmos 1626 2.0 18:40:38 10° N 18:44:23 76° E 18:48:06 10° SSE
CZ-2C R/B 3.9 18:40:31 10° N 18:45:03 75° WNW 18:49:29 10° SSW
Cosmos 2366 rocket 4.0 18:39:21 10° S 18:45:35 83° E 18:51:47 10° N
BREEZE-M DEB (TANK) 1.8 18:44:05 10° SW 18:46:08 35° SE 18:47:42 14° E
ALOS 2.8 18:43:09 10° SE 18:47:27 37° ENE 18:51:45 10° N
Cosmos 1420 Rocket 4.3 18:45:17 10° N 18:50:23 45° ENE 18:55:26 10° SE
Cosmos 2360 Rocket 2.2 18:46:21 10° NNW 18:52:02 76° ENE 18:57:42 10° SSE
APEX 3.9 18:51:48 10° SSE 18:54:23 22° ESE 18:55:47 16° ENE
COSMOS 2428 3.2 18:49:58 10° N 18:55:16 38° ENE 19:00:31 10° SE
Thor Agena Rocket 4.3 18:52:45 10° NE 18:57:09 28° E 19:01:28 10° SSE
Cosmos 2333 Rocket 3.4 18:53:42 10° N 18:58:14 23° NE 19:01:34 15° E
Cosmos 158 Rocket 4.3 18:54:47 10° S 18:59:29 41° ESE 19:04:20 10° NNE
Cosmos 2322 Rocket 3.8 18:54:50 10° NW 18:59:59 38° WSW 19:05:07 10° S
COSMO-SKYMED 1 2.5 18:56:12 10° NNE 19:00:34 78° ESE 19:04:53 10° S
Cosmos 1833 4.2 18:55:20 10° SSW 19:01:03 89° ESE 19:06:43 10° NNE
BREEZE-M DEB (TANK) 3.8 18:57:04 10° WNW 19:01:07 73° NNE 19:17:23 10° ESE
MONITOR-E 4.1 18:58:14 10° SSE 19:01:18 88° E 19:04:24 10° NNW
Cosmos 2219 3.9 18:58:52 10° SSE 19:03:54 33° ESE 19:08:57 10° NE
Sich 1 4.2 19:02:27 10° NNE 19:05:50 21° ENE 19:07:31 17° ESE
Abrixas 4.3 19:08:45 10° SSE 19:09:11 12° SSE 19:09:11 12° SSE
Abrixas rocket 3.6 19:10:17 10° WNW 19:13:13 29° N 19:14:57 18° NE
Cosmos 1805 Rocket 4.0 19:11:00 10° N 19:15:07 39° ENE 19:19:15 10° SSE
Cosmos 1315 Rocket 2.8 19:13:07 10° N 19:17:12 89° E 19:21:19 10° S
FENGYUN 3A 3.6 19:12:15 10° SSE 19:17:37 73° ENE 19:23:02 10° N
FengYun 1-2 T 4.5 19:12:44 10° SE 19:17:55 44° ENE 19:23:06 10° N
Cosmos 44 3.2 19:16:09 10° SSW 19:20:21 49° ESE 19:23:08 20° NE
EO 1 Del DPAF 4.4 19:16:42 10° N 19:20:24 45° WNW 19:24:04 10° SW
Cosmos 1000 Rocket 4.5 19:15:22 10° N 19:21:34 62° E 19:27:40 10° SSE
Cosmos 1821 Rocket 4.0 19:16:20 10° SSE 19:22:17 53° E 19:28:20 10° NNE
Cosmos 1666 Rocket 4.2 19:20:06 10° NNE 19:23:58 31° ENE 19:25:01 27° ESE
YAOGAN 1 4.4 19:20:27 10° SSW 19:24:23 34° W 19:28:22 10° NNW
Cosmos 2322 3.9 19:19:04 10° NNW 19:24:48 75° WSW 19:30:29 10° SSE
Cosmos 1934 Rocket 4.3 19:20:15 10° SSE 19:26:11 44° E 19:32:10 10° NNE
USA 267 4.0 19:25:18 22° E 19:28:15 31° SE 19:33:54 10° S
Cosmos 2239 Rocket 4.4 19:23:29 10° S 19:29:29 61° E 19:35:33 10° NNE
Cosmos 2151 4.4 19:27:17 10° NNW 19:31:19 40° W 19:35:17 10° SSW
Cosmos 1633 Rocket 3.8 19:27:30 10° NNE 19:31:27 31° ENE 19:31:28 31° ENE
Cosmos 1269 Rocket 4.0 19:27:25 10° S 19:32:35 60° ESE 19:37:47 10° NNE
SPOT 3 Rocket 4.3 19:29:16 10° S 19:34:20 55° W 19:39:29 10° NNW
RESURS DK-1 4.0 19:36:27 10° NW 19:40:13 34° WSW 19:43:57 10° S
Cosmos 2219 Rocket 2.3 19:35:13 10° NNW 19:40:43 53° ENE 19:43:16 30° ESE
SJ-6B 2.8 19:40:35 49° E 19:40:44 50° ENE 19:44:22 10° N
Lacrosse 5 rocket 3.9 19:39:32 10° NNW 19:41:17 12° N 19:43:00 10° NNE
FREGAT/IRIS 2.4 19:42:27 78° NNE 19:42:27 78° NNE 19:45:19 10° N
Cosmos 44 Rocket 3.1 19:39:13 10° SSW 19:43:55 82° ESE 19:46:44 24° NE
SL-8 R/B 4.1 19:41:02 10° W 19:45:48 59° NNW 19:47:49 33° NE
Meteor 2-10 4.0 19:42:08 10° S 19:46:59 52° E 19:51:57 10° NNE
Cosmos 1726 2.0 19:45:17 10° S 19:48:59 90° E 19:52:42 10° N
Cosmos 2098 Rocket 3.4 19:45:14 10° S 19:49:38 86° W 19:55:21 10° N
Cosmos 2123 Rocket 4.0 19:44:50 10° N 19:51:01 60° E 19:57:12 10° SSE
BREEZE M DEB (TANK) 4.5 19:33:00 10° WNW 19:52:34 64° N 19:54:57 37° ENE
Atlas Centaur 2 4.0 19:49:21 10° SW 19:52:35 17° S 19:54:54 14° SSE
Delta 2 Rocket 4.5 19:53:13 10° WSW 19:56:09 26° S 19:56:09 26° S
Gbstr 26 Del rocket 3.6 19:51:10 10° NW 19:56:19 77° NNE 19:58:17 44° ESE
Cosmos 1605 Rocket 4.0 19:50:43 10° SSE 19:56:34 50° E 20:02:25 10° NNE
CSL-04 DEB 4.2 19:56:23 67° ESE 19:56:41 71° ENE 20:00:43 10° N
Aureole 2 Rocket 2.6 19:54:19 10° NNW 19:58:14 80° ENE 19:58:14 80° ENE
Spot 2 Rocket 4.3 20:00:22 32° NE 20:00:22 32° NE 20:03:50 10° N
Cosmos 2221 3.7 19:55:46 10° SSW 19:59:52 43° WNW 20:04:03 10° N
Cosmos 2333 4.4 19:54:48 10° NNW 20:00:31 73° WSW 20:05:29 14° SSE
USA 234 4.2 20:02:15 28° NE 20:04:15 33° NNE 20:09:56 10° NW
CZ-4C R/B 2.0 20:00:11 10° SW 20:05:23 88° NW 20:08:29 29° NE
Cosmos 1110 Rocket 3.9 20:02:06 10° NNW 20:07:24 63° ENE 20:07:45 61° E
H-2A R/B 3.5 20:07:33 22° S 20:09:51 53° W 20:13:42 10° NNW
In-Cosmos 22 Rocket 4.1 20:07:25 10° N 20:13:11 78° E 20:15:17 41° SSE
Cosmos 2237 Rocket 2.4 20:07:50 10° NNW 20:13:12 52° NE 20:13:12 52° NE
Cosmos 2084 4.5 20:11:29 10° NNW 20:13:43 32° NNW 20:13:43 32° NNW
Cosmos 2227 Rocket 3.8 20:15:45 10° S 20:17:28 20° S 20:17:28 20° S
Resurs 01 Rocket 3.0 20:23:46 29° N 20:23:46 29° N 20:25:58 10° N
SL-16 R/B 3.6 20:18:49 10° N 20:21:48 24° NNE 20:21:48 24° NNE
Meteor 2-3 Rocket 4.4 20:18:49 10° N 20:22:50 40° NNE 20:22:50 40° NNE
Cosmos 1447 Rocket 4.5 20:23:52 10° N 20:29:40 64° NE 20:29:40 64° NE
Envisat 3.7 20:35:33 45° N 20:35:33 45° N 20:39:02 10° N
Cosmos 1980 3.7 20:31:22 10° NNW 20:36:26 72° N 20:36:26 72° N
NOSS 0 Rocket 3.9 20:30:55 10° NNW 20:37:06 77° WSW 20:37:55 66° S
Meteor 2-2 Rocket 4.3 20:32:49 10° SSW 20:38:32 74° WNW 20:44:11 10° N
COSMOS 2428 4.2 20:34:24 10° NW 20:39:25 33° WSW 20:44:03 12° SSW
Cosmos 2333 Rocket 2.6 20:37:16 10° NNW 20:42:56 60° WSW 20:43:38 56° SW
Cosmos 2219 4.5 20:42:36 10° SW 20:47:56 39° WNW 20:53:18 10° N
BREEZE-M DEB (TANK) 3.9 20:46:59 10° WNW 20:52:04 42° NW 20:52:04 42° NW
USA 267 3.5 21:12:42 62° W 21:12:42 62° W 21:18:08 10° WSW
Cosmos 2219 Rocket 4.2 21:20:01 10° NW 21:24:15 22° W 21:25:02 22° WSW
USA 234 4.5 21:49:37 36° NW 21:49:37 36° NW 21:53:13 10° NW
CZ-4C R/B 4.5 21:50:41 10° W 21:53:44 20° NW 21:53:44 20° NW
